This demonstration page uses our WeatherBlox Daily Observations layout. Learn more.

41.55636, -103.73856

Hourly Observations for January 8, 2019

Temp ( °F °C ) Dew Point ( °F °C ) Humidity (%) Winds ( mph kmh ) Pressure ( in mb ) Visibility ( mi km ) Precip ( " mm )
12:58 am 00:58 Clear 34 1 15 -9.3 47 47 WNW 43 69 30.01 1016 10 16.0934 N/A
1:58 am 01:58 Clear 33 0.3 8 -13.3 36 36 WNW 33 54 30.06 1018 10 16.0934 N/A
2:58 am 02:58 Clear 30 -1.1 9 -12.7 41 41 WNW 24 39 30.14 1021 10 16.0934 N/A
3:58 am 03:58 Clear 30 -1.3 7 -14.1 37 37 NW 35 56 30.13 1020 10 16.0934 N/A
4:58 am 04:58 Clear 29 -1.5 5 -14.8 36 36 NW 39 63 30.14 1021 10 16.0934 N/A
5:58 am 05:58 Clear 28 -2.4 6 -14.2 40 40 NW 26 43 30.15 1021 10 16.0934 N/A
6:58 am 06:58 Clear 28 -2.2 4 -15.8 35 35 NW 35 56 30.17 1022 10 16.0934 N/A
7:58 am 07:58 Clear 29 -1.5 0 -17.6 28 28 NW 35 56 30.15 1021 10 16.0934 N/A
8:58 am 08:58 Clear 28 -2 3 -16.1 33 33 NNW 35 56 30.19 1022 10 16.0934 N/A
9:58 am 09:58 Clear 28 -2 5 -14.8 37 37 NNW 33 54 30.21 1023 10 16.0934 N/A
10:58 am 10:58 Clear 28 -2.4 7 -13.9 41 41 NNW 28 44 30.22 1023 10 16.0934 N/A
11:58 am 11:58 Clear 28 -2.5 5 -15 38 38 NNW 28 44 30.27 1025 10 16.0934 N/A
12:58 pm 12:58 Clear 28 -2.1 7 -13.8 41 41 NNW 28 44 30.32 1027 10 16.0934 N/A
1:58 pm 13:58 Clear 28 -2.5 6 -14.3 40 40 N 24 39 30.35 1028 10 16.0934 N/A
2:58 pm 14:58 Sunny 26 -3.4 3 -16.1 37 37 NNW 20 31 30.4 1029 10 16.0934 N/A
3:58 pm 15:58 Sunny 29 -1.9 3 -16 33 33 NNW 15 24 30.44 1031 10 16.0934 N/A
4:58 pm 16:58 Sunny 32 0 5 -15 32 32 Calm 30.48 1032 10 16.0934 N/A
5:58 pm 17:58 Sunny 36 2 12 -11.3 37 37 NW 7 11 30.45 1031 10 16.0934 N/A
6:58 pm 18:58 Sunny 37 2.8 12 -11.2 35 35 N 3 6 30.44 1031 10 16.0934 N/A
7:58 pm 19:58 Sunny 39 4 13 -10.3 35 35 NNW 9 15 30.42 1030 10 16.0934 N/A
8:58 pm 20:58 Sunny 39 4.1 13 -10.8 33 33 NNW 8 13 30.43 1031 10 16.0934 N/A
9:58 pm 21:58 Sunny 39 4.1 12 -10.9 33 33 N 7 11 30.45 1031 10 16.0934 N/A
10:58 pm 22:58 Sunny 38 3.3 13 -10.8 35 35 NNE 7 11 30.47 1032 10 16.0934 N/A
11:58 pm 23:58 Clear 33 0.6 12 -11.2 41 41 ENE 3 6 30.5 1033 10 16.0934 N/A

Powered by AerisWeather